{"data":{"norad_id":67827,"epoch":"2026-09-19T23:26:23.404128Z","epoch_age_seconds":111713,"freshness":"FRESH","line1":"1 67827U 26033G   26262.97665977  .00011644  00000+0  43182-3 0  9994","line2":"2 67827  42.9964 250.1837 0000846 317.0966  42.9819 15.27591338 34387","mean_motion":15.27591338,"eccentricity":8.46e-5,"inclination_deg":42.9964,"raan_deg":250.1837,"arg_perigee_deg":317.0966,"mean_anomaly_deg":42.9819,"bstar":0.00043182,"rev_number":3438,"period_min":94.266049052446,"perigee_km":482.43469272725,"apogee_km":483.59559967038,"semimajor_km":6861.1521461988,"source":"CELESTRAK","updated_at":"2026-09-20T09:00:43.668145Z"}}